Regional Weather Roundup
Issued by NWS

Home | Current Version | Previous Version | Graphics & Text | Print | Product List | Glossary On
Versions: 1 2 3 4 5 6 7 8 9 10 11 12 13 14 15 16 17 18 19 20 21 22 23 24 25 26 27 28 29 30 31 32 33 34 35 36 37 38 39 40 41 42 43 44 45 46 47 48 49 50
000
ASUS43 KMKX 272011
RWRWI

WISCONSIN REGIONAL WEATHER ROUNDUP
NATIONAL WEATHER SERVICE MILWAUKEE/SULLIVAN WI
300 PM CDT WED AUG 27 2014

NOTE: "FAIR" INDICATES FEW OR NO CLOUDS BELOW 12,000 FEET WITH NO
SIGNIFICANT WEATHER AND/OR OBSTRUCTIONS TO VISIBILITY.

WIZ001-002-006>008-014>016-023>028-272100-
NORTHWEST WISCONSIN

CITY           SKY/WX    TMP DP  RH WIND       PRES   REMARKS
SUPERIOR ARPT  MOSUNNY   70  51  50 NW3       30.18F
ASHLAND        SUNNY     69  51  52 N9        30.20F
HAYWARD        MOSUNNY   68  48  48 CALM      30.20F
SIREN          PTSUNNY   69  52  54 N5        30.21S
RICE LAKE      PTSUNNY   69  51  53 N5        30.21F
LADYSMITH      SUNNY     71  51  49 NW6       30.21F
EAU CLAIRE     MOSUNNY   73  55  53 VRB5      30.17F
MENOMONIE      CLEAR     73  54  50 N3        30.18F
NEW RICHMOND   SUNNY     72  54  52 N5        30.19F
OSCEOLA        SUNNY     72  56  55 N3        30.21F
$$

WIZ003>005-009-010-017-018-272100-
NORTH CENTRAL WISCONSIN

CITY           SKY/WX    TMP DP  RH WIND       PRES   REMARKS
WOODRUFF       SUNNY     69  48  47 NW6       30.20S
RHINELANDER    SUNNY     69  47  45 VRB5      30.20F
EAGLE RIVER    MOSUNNY   67  45  44 W9        30.18F
LAND O LAKES   PTSUNNY   69  47  46 NW9       30.19F
PHILLIPS       MOSUNNY   67  49  52 W5        30.20F
TOMAHAWK       MOSUNNY   69  50  50 NW7       30.20S
MEDFORD        SUNNY     68  52  55 NW3       30.19F
MERRILL        SUNNY     70  53  53 NW8       30.18F
$$

WIZ029-030-035-036-043>047-272100-
CENTRAL WISCONSIN

CITY           SKY/WX    TMP DP  RH WIND       PRES   REMARKS
WAUSAU         MOSUNNY   72  53  51 W10       30.17F
MOSINEE        NOT AVBL
MARSHFIELD     MOSUNNY   73  56  54 NW12      30.17F
STEVENS POINT  PTSUNNY   71  55  56 N6        30.18S
WAUPACA        CLOUDY    74  55  51 CALM      30.17S
WAUTOMA        PTSUNNY   76  56  49 NW6       30.17F
WISC RAPIDS    MOSUNNY   74  56  53 NW7       30.18F
CAMP DOUGLAS   PTSUNNY   75  57  53 VRB3      30.18S
$$

WIZ011>013-019>022-031-037>040-048>050-272100-
NORTHEAST WISCONSIN

CITY           SKY/WX    TMP DP  RH WIND       PRES   REMARKS
ANTIGO         MOSUNNY   69  53  56 W5        30.19S
STURGEON BAY   PTSUNNY   66  52  59 NW7       30.18S
GREEN BAY      PTSUNNY   72  57  59 CALM      30.17F
MANITOWOC      PTSUNNY   68  55  63 SE7       30.17F
APPLETON       PTSUNNY   70  54  56 VRB6      30.18S
CLINTONVILLE   PTSUNNY   72  54  53 N5        30.16F
OSHKOSH        MOSUNNY   71  56  58 E5        30.17S
$$

WIZ032>034-041-042-053>061-272100-
SOUTHWEST WISCONSIN

CITY           SKY/WX    TMP DP  RH WIND       PRES   REMARKS
LA CROSSE      CLOUDY    77  58  51 W7        30.17F
SPARTA         CLOUDY    76  54  46 W5        30.18F
VIROQUA        FAIR      72  57  58 CALM      30.19F
BOSCOBEL       CLOUDY    78  56  46 VRB6      30.17F
PRAIRIE DU CHI CLOUDY    74  56  54 CALM      30.16F
PLATTEVILLE    FAIR      75  60  59 N5        30.18F
$$

WIZ056-057-062-063-064-067-068-272100-
SOUTH CENTRAL WISCONSIN

CITY           SKY/WX    TMP DP  RH WIND       PRES   REMARKS
BARABOO/DELLS  PTSUNNY   74  54  49 CALM      30.17F
LONE ROCK      CLOUDY    80  58  46 N3        30.17F HX  80
WATERTOWN      PTSUNNY   75  60  59 CALM      30.16F
MADISON        CLOUDY    76  57  51 CALM      30.17F
MIDDLETON      FAIR      76  56  49 CALM      30.18S
MONROE         CLOUDY    75  59  57 N3        30.17F
JANESVILLE     SUNNY     79  55  44 N8        30.15S
$$

WIZ051-052-058>065-066-070>072-272100-
SOUTHEAST WISCONSIN

CITY           SKY/WX    TMP DP  RH WIND       PRES   REMARKS
MILWAUKEE      PTSUNNY   70  62  76 E8        30.17S
WAUKESHA       PTSUNNY   72  61  68 E6        30.18S
MILWAUKEE/TIMM PTSUNNY   72  57  60 E6        30.18S
RACINE         PTSUNNY   72  62  71 E9        30.18S
BURLINGTON     PTSUNNY   74  59  58 CALM      30.16S
KENOSHA        PTSUNNY   73  63  70 E9        30.16F
FOND DU LAC    MOSUNNY   73  53  49 N7        30.17F
SHEBOYGAN      MOSUNNY   72  56  57 NE6       30.17F
WEST BEND      CLOUDY    70  59  68 E6        30.17S
JUNEAU         PTSUNNY   73  58  60 N5        30.18F
$$

LSZ147-162-272100-
LAKE SUPERIOR

STATION/POSITION TIME  TEMP    WIND        PRES    WAVE
                       AIR SEA DIR/SP/G            HT/PER
                 (UTC) (F)     (DEG/KT/KT) (MB)    (FT/S)
W MID LAKE BUOY  1950   57 56  240/  8/ 10 1022.5F   1/ 3
DEVILS ISLAND    2000   63     200/  3/  6 1022.6F
PORT WING        1900   65     280/  4/  6 1023.0
SAXON HARBOR     1900   64      20/  4/  6 1023.4F
$$

LMZ867-665-643>646-272100-
LAKE MICHIGAN

STATION/POSITION TIME  TEMP    WIND        PRES    WAVE
                       AIR SEA DIR/SP/G            HT/PER
                 (UTC) (F)     (DEG/KT/KT) (MB)    (FT/S)
N MID LAKE BUOY  1950   62 67  250/  4/  6 1021.7F   0
NORTHPORT PIER   1900   65     330/  5/  5 1022.0S
SISTER BAY       1926             CALM       N/A
KEWAUNEE LAKESHO 1900   67     110/  4/  5 1021.2F
SHEBOYGAN LAKESH 2000   65 68   90/  7/  8 1021.8F
ATWATER BUOY     2000   68      60/  6/  8 1022.7S
MILWAUKEE LAKESH 1900   67      50/  8/ 10   N/A
S MID LAKE BUOY  1950   68 71  360/  8/  8 1021.3F   1
KENOSHA   LAKESH 2000   69      50/  8/ 10 1020.7F
$$

TC  - TEMPERATURE IN CELSIUS
VSB - VISIBILITY IN STATUTE MILES
WCI - WIND CHILL INDEX
HX  - HEAT INDEX



USA.gov is the U.S. government's official web portal to all federal, state and local government web resources and services.